Time,TemperatureF,DewpointF,PressureIn,WindDirection,WindDirectionDegrees,WindSpeedMPH,WindSpeedGustMPH,Humidity,HourlyPrecipIn,Conditions,Clouds,dailyrainin,SoftwareType,DateUTC
2013-01-19 00:13:00,26.3,13.0,30.36,SSW,200,2.0,5.0,58,0.00,,,0.00,weatherlink.com 1.10,2013-01-19 05:13:00,
2013-01-19 00:28:00,26.4,13.0,30.37,SW,229,4.0,9.0,58,0.00,,,0.00,weatherlink.com 1.10,2013-01-19 05:28:00,
2013-01-19 00:43:00,26.4,13.0,30.36,SSE,166,1.0,5.0,58,0.00,,,0.00,weatherlink.com 1.10,2013-01-19 05:43:00,
2013-01-19 00:58:00,26.6,13.0,30.37,SSW,194,3.0,9.0,58,0.00,,,0.00,weatherlink.com 1.10,2013-01-19 05:58:00,
2013-01-19 01:13:00,26.6,13.0,30.36,SSW,199,4.0,7.0,58,0.00,,,0.00,weatherlink.com 1.10,2013-01-19 06:13:00,
2013-01-19 01:28:00,26.4,14.0,30.36,SW,223,3.0,5.0,59,0.00,,,0.00,weatherlink.com 1.10,2013-01-19 06:28:00,
2013-01-19 01:43:00,26.1,13.0,30.36,SSW,209,1.0,5.0,59,0.00,,,0.00,weatherlink.com 1.10,2013-01-19 06:43:00,
2013-01-19 01:58:00,25.9,14.0,30.36,SSW,213,4.0,4.0,61,0.00,,,0.00,weatherlink.com 1.10,2013-01-19 06:58:00,
2013-01-19 02:13:00,25.8,14.0,30.36,SSW,207,0.0,4.0,61,0.00,,,0.00,weatherlink.com 1.10,2013-01-19 07:13:00,
2013-01-19 02:28:00,25.7,14.0,30.35,SSW,197,2.0,5.0,62,0.00,,,0.00,weatherlink.com 1.10,2013-01-19 07:28:00,
2013-01-19 02:43:00,25.7,14.0,30.35,SW,226,0.0,5.0,62,0.00,,,0.00,weatherlink.com 1.10,2013-01-19 07:43:00,
2013-01-19 02:58:00,25.6,14.0,30.34,SSW,202,0.0,3.0,62,0.00,,,0.00,weatherlink.com 1.10,2013-01-19 07:58:00,
2013-01-19 03:13:00,25.6,14.0,30.33,SSW,198,1.0,4.0,63,0.00,,,0.00,weatherlink.com 1.10,2013-01-19 08:13:00,
2013-01-19 03:28:00,25.6,15.0,30.32,ESE,121,0.0,2.0,64,0.00,,,0.00,weatherlink.com 1.10,2013-01-19 08:28:00,
2013-01-19 03:43:00,25.6,15.0,30.32,SSW,194,0.0,2.0,65,0.00,,,0.00,weatherlink.com 1.10,2013-01-19 08:43:00,
2013-01-19 03:58:00,25.7,15.0,30.31,South,188,1.0,5.0,65,0.00,,,0.00,weatherlink.com 1.10,2013-01-19 08:58:00,
2013-01-19 04:13:00,25.8,16.0,30.31,SSW,209,3.0,3.0,66,0.00,,,0.00,weatherlink.com 1.10,2013-01-19 09:13:00,
2013-01-19 04:28:00,26.0,16.0,30.31,SSW,209,0.0,5.0,66,0.00,,,0.00,weatherlink.com 1.10,2013-01-19 09:28:00,
2013-01-19 04:43:00,26.2,17.0,30.30,SSW,208,2.0,4.0,67,0.00,,,0.00,weatherlink.com 1.10,2013-01-19 09:43:00,
2013-01-19 04:58:00,26.5,17.0,30.30,SSW,207,2.0,4.0,67,0.00,,,0.00,weatherlink.com 1.10,2013-01-19 09:58:00,
2013-01-19 05:13:00,26.7,17.0,30.29,SSW,207,0.0,3.0,68,0.00,,,0.00,weatherlink.com 1.10,2013-01-19 10:13:00,
2013-01-19 05:28:00,27.0,18.0,30.29,SSW,205,3.0,4.0,69,0.00,,,0.00,weatherlink.com 1.10,2013-01-19 10:28:00,
2013-01-19 05:43:00,27.5,19.0,30.28,SSW,208,4.0,7.0,70,0.00,,,0.00,weatherlink.com 1.10,2013-01-19 10:43:00,
2013-01-19 05:58:00,28.0,20.0,30.27,SW,215,5.0,7.0,71,0.00,,,0.00,weatherlink.com 1.10,2013-01-19 10:58:00,
2013-01-19 07:59:00,29.6,23.0,30.25,SW,230,8.0,9.0,75,0.00,,,0.00,weatherlink.com 1.10,2013-01-19 12:59:00,
2013-01-19 08:14:00,29.9,23.0,30.26,SSW,208,5.0,7.0,76,0.00,,,0.00,weatherlink.com 1.10,2013-01-19 13:14:00,
2013-01-19 08:29:00,30.6,24.0,30.25,SW,219,4.0,12.0,76,0.00,,,0.00,weatherlink.com 1.10,2013-01-19 13:29:00,
2013-01-19 08:44:00,31.3,25.0,30.25,SSW,199,5.0,11.0,76,0.00,,,0.00,weatherlink.com 1.10,2013-01-19 13:44:00,
2013-01-19 08:59:00,32.0,25.0,30.24,SSW,198,8.0,15.0,75,0.00,,,0.00,weatherlink.com 1.10,2013-01-19 13:59:00,
2013-01-19 09:14:00,32.7,25.0,30.25,SW,223,5.0,12.0,74,0.00,,,0.00,weatherlink.com 1.10,2013-01-19 14:14:00,
2013-01-19 09:29:00,33.6,26.0,30.25,SSW,200,7.0,11.0,74,0.00,,,0.00,weatherlink.com 1.10,2013-01-19 14:29:00,
2013-01-19 09:44:00,34.5,27.0,30.24,SSW,207,7.0,11.0,73,0.00,,,0.00,weatherlink.com 1.10,2013-01-19 14:44:00,
2013-01-19 09:59:00,34.7,27.0,30.23,SW,232,7.0,13.0,72,0.00,,,0.00,weatherlink.com 1.10,2013-01-19 14:59:00,
2013-01-19 10:14:00,35.3,27.0,30.23,SW,228,2.0,14.0,72,0.00,,,0.00,weatherlink.com 1.10,2013-01-19 15:14:00,
2013-01-19 10:29:00,36.0,27.0,30.22,SSW,213,7.0,7.0,71,0.00,,,0.00,weatherlink.com 1.10,2013-01-19 15:29:00,
2013-01-19 10:44:00,37.0,28.0,30.20,SW,215,0.0,11.0,69,0.00,,,0.00,weatherlink.com 1.10,2013-01-19 15:44:00,
2013-01-19 10:59:00,37.9,28.0,30.20,SW,222,2.0,12.0,67,0.00,,,0.00,weatherlink.com 1.10,2013-01-19 15:59:00,
2013-01-19 11:14:00,38.7,28.0,30.18,West,267,1.0,14.0,66,0.01,,,0.01,weatherlink.com 1.10,2013-01-19 16:14:00,
2013-01-19 11:29:00,39.3,28.0,30.17,SW,220,5.0,9.0,65,0.01,,,0.01,weatherlink.com 1.10,2013-01-19 16:29:00,
2013-01-19 11:44:00,40.1,28.0,30.16,SW,228,6.0,11.0,63,0.01,,,0.01,weatherlink.com 1.10,2013-01-19 16:44:00,
2013-01-19 12:00:00,40.8,29.0,30.14,SSW,213,5.0,9.0,62,0.02,,,0.02,weatherlink.com 1.10,2013-01-19 17:00:00,
2013-01-19 12:30:00,42.4,29.0,30.12,SW,234,4.0,11.0,59,0.03,,,0.04,weatherlink.com 1.10,2013-01-19 17:30:00,
2013-01-19 12:50:00,43.3,29.5,30.11,SW,232,3.0,3.0,58,0.04,,,0.05,Wunderground v.1.15,2013-01-19 17:50:00,
2013-01-19 13:00:00,43.6,29.4,30.10,SW,218,3.0,3.0,57,0.05,,,0.06,Wunderground v.1.15,2013-01-19 18:00:00,
2013-01-19 13:10:00,43.6,28.9,30.10,SW,233,3.0,6.0,56,0.00,,,0.06,Wunderground v.1.15,2013-01-19 18:10:00,
2013-01-19 13:15:00,43.6,29.0,30.10,SSW,207,5.0,9.0,57,0.04,,,0.07,weatherlink.com 1.10,2013-01-19 18:15:00,
2013-01-19 13:30:00,43.6,29.4,30.09,SW,231,3.0,4.0,57,0.04,,,0.08,Wunderground v.1.15,2013-01-19 18:30:00,
2013-01-19 13:40:00,43.8,29.1,30.09,WSW,237,3.0,5.0,56,0.04,,,0.08,Wunderground v.1.15,2013-01-19 18:40:00,
2013-01-19 13:50:00,44.2,29.0,30.08,SSW,207,4.0,4.0,55,0.00,,,0.08,Wunderground v.1.15,2013-01-19 18:50:00,
2013-01-19 14:10:00,44.6,29.0,30.07,SW,225,4.0,4.0,54,0.00,,,0.09,Wunderground v.1.15,2013-01-19 19:10:00,
2013-01-19 14:15:00,44.6,29.0,30.07,SW,217,6.0,10.0,54,0.02,,,0.09,weatherlink.com 1.10,2013-01-19 19:15:00,
2013-01-19 14:30:00,44.6,29.0,30.06,SW,230,3.0,3.0,54,0.00,,,0.09,Wunderground v.1.15,2013-01-19 19:30:00,
2013-01-19 14:50:00,45.1,29.0,30.06,SSW,201,4.0,4.0,53,0.00,,,0.10,Wunderground v.1.15,2013-01-19 19:50:00,
2013-01-19 15:01:00,45.2,29.0,30.06,SSW,213,0.0,8.0,53,0.02,,,0.10,weatherlink.com 1.10,2013-01-19 20:01:00,
2013-01-19 15:10:00,45.2,29.5,30.05,SW,227,2.0,2.0,54,0.00,,,0.10,Wunderground v.1.15,2013-01-19 20:10:00,
2013-01-19 15:20:00,45.3,29.2,30.05,SW,226,2.0,2.0,53,0.00,,,0.10,Wunderground v.1.15,2013-01-19 20:20:00,
2013-01-19 15:30:00,45.5,29.3,30.05,WSW,246,2.0,4.0,53,0.00,,,0.10,Wunderground v.1.15,2013-01-19 20:30:00,
2013-01-19 15:40:00,45.8,29.2,30.05,SW,218,3.0,3.0,52,0.00,,,0.10,Wunderground v.1.15,2013-01-19 20:40:00,
2013-01-19 15:50:00,46.0,28.9,30.05,SW,225,2.0,2.0,51,0.00,,,0.10,Wunderground v.1.15,2013-01-19 20:50:00,
2013-01-19 16:00:00,45.9,28.8,30.04,SW,234,1.0,1.0,51,0.00,,,0.10,Wunderground v.1.15,2013-01-19 21:00:00,
2013-01-19 16:17:00,46.2,29.0,30.03,WSW,240,2.0,7.0,51,0.00,,,0.10,weatherlink.com 1.10,2013-01-19 21:17:00,
2013-01-19 16:40:00,46.1,29.4,30.03,SW,227,2.0,2.0,52,0.00,,,0.10,Wunderground v.1.15,2013-01-19 21:40:00,
2013-01-19 17:10:00,45.7,29.1,30.02,SW,232,0.0,0.0,52,0.00,,,0.10,Wunderground v.1.15,2013-01-19 22:10:00,
2013-01-19 17:18:00,45.5,29.0,30.02,SW,232,0.0,4.0,53,0.00,,,0.10,weatherlink.com 1.10,2013-01-19 22:18:00,
2013-01-19 17:30:00,45.9,29.2,30.02,SW,228,2.0,5.0,52,0.00,,,0.10,Wunderground v.1.15,2013-01-19 22:30:00,
2013-01-19 17:40:00,46.5,28.8,30.02,WSW,242,4.0,4.0,50,0.00,,,0.10,Wunderground v.1.15,2013-01-19 22:40:00,
2013-01-19 17:47:00,46.6,29.0,30.02,SSW,204,0.0,6.0,51,0.00,,,0.10,weatherlink.com 1.10,2013-01-19 22:47:00,
2013-01-19 18:00:00,46.5,29.3,30.02,SW,221,2.0,2.0,51,0.00,,,0.10,Wunderground v.1.15,2013-01-19 23:00:00,
2013-01-19 18:10:00,46.4,29.2,30.01,South,183,3.0,4.0,51,0.00,,,0.10,Wunderground v.1.15,2013-01-19 23:10:00,
2013-01-19 18:18:00,46.5,29.0,30.01,SW,236,5.0,9.0,51,0.00,,,0.10,weatherlink.com 1.10,2013-01-19 23:18:00,
2013-01-19 18:32:00,46.6,29.0,30.01,SW,223,4.0,9.0,51,0.00,,,0.10,weatherlink.com 1.10,2013-01-19 23:32:00,
2013-01-19 18:40:00,46.5,29.3,30.01,SSW,201,4.0,6.0,51,0.00,,,0.10,Wunderground v.1.15,2013-01-19 23:40:00,
2013-01-19 18:47:00,46.4,29.0,30.01,SW,236,5.0,10.0,52,0.00,,,0.10,weatherlink.com 1.10,2013-01-19 23:47:00,
2013-01-19 19:00:00,46.3,29.6,30.01,SW,229,5.0,6.0,52,0.00,,,0.10,Wunderground v.1.15,2013-01-20 00:00:00,
2013-01-19 19:10:00,46.2,30.0,30.01,SSW,196,4.0,6.0,53,0.00,,,0.10,Wunderground v.1.15,2013-01-20 00:10:00,
2013-01-19 19:18:00,46.0,30.0,30.00,WSW,241,4.0,10.0,53,0.00,,,0.10,weatherlink.com 1.10,2013-01-20 00:18:00,
2013-01-19 19:30:00,45.6,29.9,30.00,SW,233,3.0,3.0,54,0.00,,,0.10,Wunderground v.1.15,2013-01-20 00:30:00,
2013-01-19 19:40:00,45.5,30.3,30.00,SW,229,3.0,4.0,55,0.00,,,0.10,Wunderground v.1.15,2013-01-20 00:40:00,
2013-01-19 19:48:00,45.3,30.0,29.99,SW,223,5.0,7.0,55,0.00,,,0.10,weatherlink.com 1.10,2013-01-20 00:48:00,
2013-01-19 20:00:00,45.1,30.3,29.99,SW,230,3.0,3.0,56,0.00,,,0.10,Wunderground v.1.15,2013-01-20 01:00:00,
2013-01-19 20:10:00,45.0,30.7,29.99,SW,219,3.0,3.0,57,0.00,,,0.10,Wunderground v.1.15,2013-01-20 01:10:00,
2013-01-19 20:19:00,44.9,30.0,29.98,SW,217,4.0,8.0,57,0.00,,,0.10,weatherlink.com 1.10,2013-01-20 01:19:00,
2013-01-19 20:30:00,44.9,30.6,29.98,SSW,213,4.0,6.0,57,0.00,,,0.10,Wunderground v.1.15,2013-01-20 01:30:00,
2013-01-19 20:40:00,44.6,31.6,29.97,WSW,240,4.0,4.0,60,0.00,,,0.10,Wunderground v.1.15,2013-01-20 01:40:00,
2013-01-19 20:48:00,44.4,30.0,29.97,SW,230,5.0,7.0,58,0.00,,,0.10,weatherlink.com 1.10,2013-01-20 01:48:00,
2013-01-19 21:00:00,44.1,30.7,29.96,SW,223,3.0,7.0,59,0.00,,,0.10,Wunderground v.1.15,2013-01-20 02:00:00,
2013-01-19 21:10:00,44.0,30.6,29.96,SSW,194,4.0,6.0,59,0.00,,,0.10,Wunderground v.1.15,2013-01-20 02:10:00,
2013-01-19 21:19:00,43.7,30.0,29.96,SW,230,4.0,8.0,60,0.00,,,0.10,weatherlink.com 1.10,2013-01-20 02:19:00,
2013-01-19 21:30:00,43.6,31.8,29.95,SSW,206,4.0,5.0,63,0.00,,,0.10,Wunderground v.1.15,2013-01-20 02:30:00,
2013-01-19 21:40:00,43.4,30.4,29.95,SSW,213,4.0,7.0,60,0.00,,,0.10,Wunderground v.1.15,2013-01-20 02:40:00,
2013-01-19 21:48:00,43.1,30.0,29.95,SW,225,2.0,7.0,61,0.00,,,0.10,weatherlink.com 1.10,2013-01-20 02:48:00,
2013-01-19 22:00:00,42.8,30.7,29.94,SW,229,4.0,4.0,62,0.00,,,0.10,Wunderground v.1.15,2013-01-20 03:00:00,
2013-01-19 22:19:00,42.7,30.0,29.94,SW,215,6.0,7.0,62,0.00,,,0.10,weatherlink.com 1.10,2013-01-20 03:19:00,
2013-01-19 22:30:00,42.5,30.8,29.94,SW,230,3.0,4.0,63,0.00,,,0.10,Wunderground v.1.15,2013-01-20 03:30:00,
2013-01-19 22:40:00,42.4,30.7,29.93,SW,217,3.0,5.0,63,0.00,,,0.10,Wunderground v.1.15,2013-01-20 03:40:00,
2013-01-19 22:50:00,42.4,30.0,29.93,SW,224,4.0,7.0,63,0.00,,,0.10,weatherlink.com 1.10,2013-01-20 03:50:00,
2013-01-19 23:00:00,42.4,30.7,29.92,SW,236,3.0,3.0,63,0.00,,,0.10,Wunderground v.1.15,2013-01-20 04:00:00,
2013-01-19 23:10:00,42.4,30.7,29.92,SW,235,4.0,4.0,63,0.00,,,0.10,Wunderground v.1.15,2013-01-20 04:10:00,
2013-01-19 23:20:00,42.4,30.7,29.91,SW,219,4.0,5.0,63,0.00,,,0.10,Wunderground v.1.15,2013-01-20 04:20:00,
2013-01-19 23:35:00,42.3,31.0,29.90,West,262,4.0,10.0,64,0.00,,,0.10,weatherlink.com 1.10,2013-01-20 04:35:00,
2013-01-19 23:50:00,42.2,31.3,29.89,WSW,240,4.0,4.0,65,0.00,,,0.10,Wunderground v.1.15,2013-01-20 04:50:00,